MTN7109 TAPA-TJSJ

Flight info

Callsign MTN7109
Flight time N/A
Altitude 20000
Route GABAR G633 COY DCT CHAKA DCT SNGRA DCT REKUA DCT SJU
Aircraft C208/L-SDFGR/C

Departure

Time 2026-04-26 18:44
Airport V. C. Bird International Airport (TAPA)

Arrival

Time N/A
Airport Luis Munoz Marin International Airport (TJSJ)
Time Latitude Longitude Altitude Speed Heading
2026-04-26 18:25 17.13954 -61.79233 47 ft 0 kts 233°
2026-04-26 18:36 17.13953 -61.79232 47 ft 0 kts 236°
2026-04-26 18:40 17.13934 -61.79256 47 ft 16 kts 220°
2026-04-26 18:41 17.13832 -61.79304 48 ft 14 kts 194°
2026-04-26 18:41 17.13750 -61.79350 49 ft 13 kts 231°
2026-04-26 18:41 17.13700 -61.79432 50 ft 13 kts 240°
2026-04-26 18:41 17.13657 -61.79513 52 ft 13 kts 239°
2026-04-26 18:42 17.13609 -61.79589 54 ft 12 kts 236°
2026-04-26 18:42 17.13564 -61.79666 52 ft 13 kts 237°
2026-04-26 18:42 17.13518 -61.79743 54 ft 12 kts 239°
2026-04-26 18:42 17.13466 -61.79812 58 ft 12 kts 210°
2026-04-26 18:43 17.13416 -61.79824 58 ft 6 kts 185°
2026-04-26 18:43 17.13379 -61.79805 54 ft 7 kts 119°
2026-04-26 18:43 17.13385 -61.79757 55 ft 7 kts 65°
2026-04-26 18:43 17.13424 -61.79688 56 ft 30 kts 62°
2026-04-26 18:44 17.13672 -61.79277 49 ft 96 kts 53°
2026-04-26 18:44 17.14125 -61.78715 370 ft 102 kts 46°
2026-04-26 18:44 17.14834 -61.78670 750 ft 117 kts 342°
2026-04-26 18:44 17.15431 -61.79267 1073 ft 120 kts 284°
2026-04-26 18:45 17.15301 -61.80016 1447 ft 94 kts 225°
2026-04-26 18:45 17.14940 -61.80533 1948 ft 86 kts 224°
2026-04-26 18:45 17.14607 -61.81009 2444 ft 79 kts 218°
2026-04-26 18:45 17.14270 -61.81466 2872 ft 77 kts 218°
2026-04-26 18:46 17.13948 -61.81912 3276 ft 75 kts 218°
2026-04-26 18:46 17.13659 -61.82363 3690 ft 79 kts 238°
2026-04-26 18:46 17.13697 -61.82980 4081 ft 86 kts 262°
2026-04-26 18:46 17.13768 -61.83595 4470 ft 86 kts 267°
2026-04-26 18:47 17.13872 -61.84252 4748 ft 102 kts 268°
2026-04-26 18:47 17.14017 -61.84988 5198 ft 104 kts 270°
2026-04-26 18:47 17.14157 -61.85715 5650 ft 99 kts 270°
2026-04-26 18:47 17.14288 -61.86403 6043 ft 96 kts 271°
2026-04-26 18:48 17.14415 -61.87087 6424 ft 96 kts 270°
2026-04-26 18:48 17.14542 -61.87766 6796 ft 95 kts 270°
2026-04-26 18:48 17.14672 -61.88442 7161 ft 94 kts 271°
2026-04-26 18:48 17.14797 -61.89115 7524 ft 94 kts 270°
2026-04-26 18:49 17.14923 -61.89788 7883 ft 94 kts 272°
2026-04-26 18:49 17.15048 -61.90459 8228 ft 94 kts 271°
2026-04-26 18:49 17.15176 -61.91129 8581 ft 94 kts 270°
2026-04-26 18:49 17.15300 -61.91795 8932 ft 93 kts 273°
2026-04-26 18:50 17.15427 -61.92459 9285 ft 93 kts 272°
2026-04-26 18:50 17.15550 -61.93118 9637 ft 92 kts 273°
2026-04-26 18:50 17.15673 -61.93774 9976 ft 92 kts 271°
2026-04-26 18:50 17.15796 -61.94428 10298 ft 92 kts 274°
2026-04-26 18:51 17.15918 -61.95079 10614 ft 91 kts 275°
2026-04-26 18:51 17.16041 -61.95726 10927 ft 90 kts 274°
2026-04-26 18:51 17.16159 -61.96368 11239 ft 90 kts 274°
2026-04-26 18:51 17.16281 -61.97007 11554 ft 89 kts 274°
2026-04-26 18:52 17.16399 -61.97641 11863 ft 89 kts 275°
2026-04-26 18:52 17.16517 -61.98274 12173 ft 88 kts 277°
2026-04-26 18:52 17.16635 -61.98902 12480 ft 88 kts 277°
2026-04-26 18:52 17.16751 -61.99524 12788 ft 87 kts 276°
2026-04-26 18:53 17.16869 -62.00141 13090 ft 86 kts 277°
2026-04-26 18:53 17.16985 -62.00754 13396 ft 86 kts 277°
2026-04-26 18:53 17.17098 -62.01362 13685 ft 85 kts 279°
2026-04-26 18:53 17.17211 -62.01963 13961 ft 84 kts 278°
2026-04-26 18:54 17.17326 -62.02559 14208 ft 83 kts 277°
2026-04-26 18:54 17.17435 -62.03149 14443 ft 82 kts 277°
2026-04-26 18:54 17.17534 -62.03722 14657 ft 79 kts 277°
2026-04-26 18:54 17.17639 -62.04287 14884 ft 80 kts 275°
2026-04-26 18:55 17.17757 -62.04895 15115 ft 90 kts 277°
2026-04-26 18:55 17.17886 -62.05564 15347 ft 98 kts 277°
2026-04-26 18:55 17.18025 -62.06273 15572 ft 100 kts 278°
2026-04-26 18:55 17.18161 -62.06982 15770 ft 100 kts 277°
2026-04-26 18:56 17.18290 -62.07696 15960 ft 101 kts 277°
2026-04-26 18:56 17.18423 -62.08415 16157 ft 101 kts 277°
2026-04-26 18:56 17.18560 -62.09135 16349 ft 101 kts 277°
2026-04-26 18:56 17.18691 -62.09854 16542 ft 100 kts 277°
2026-04-26 18:57 17.18825 -62.10569 16733 ft 100 kts 277°
2026-04-26 18:57 17.18869 -62.10810 16798 ft 100 kts 276°
2026-04-26 18:57 17.19088 -62.11982 17121 ft 98 kts 276°
2026-04-26 18:57 17.19219 -62.12680 17314 ft 97 kts 276°
2026-04-26 18:58 17.19348 -62.13368 17509 ft 96 kts 276°
2026-04-26 18:58 17.19474 -62.14049 17700 ft 95 kts 276°
2026-04-26 18:58 17.19599 -62.14719 17905 ft 93 kts 276°
2026-04-26 18:58 17.19722 -62.15376 18089 ft 91 kts 276°
2026-04-26 18:59 17.19841 -62.16020 18280 ft 89 kts 275°
2026-04-26 18:59 17.19958 -62.16648 18443 ft 87 kts 275°
2026-04-26 18:59 17.20072 -62.17259 18605 ft 84 kts 275°
2026-04-26 18:59 17.20181 -62.17847 18761 ft 81 kts 274°
2026-04-26 19:00 17.20284 -62.18432 18940 ft 83 kts 275°
2026-04-26 19:00 17.20403 -62.19053 19105 ft 90 kts 275°
2026-04-26 19:00 17.20533 -62.19721 19282 ft 97 kts 275°
2026-04-26 19:00 17.20668 -62.20435 19455 ft 103 kts 275°
2026-04-26 19:01 17.20810 -62.21193 19627 ft 109 kts 275°
2026-04-26 19:01 17.20959 -62.21992 19796 ft 114 kts 275°
2026-04-26 19:01 17.21115 -62.22825 19964 ft 118 kts 275°
2026-04-26 19:01 17.21278 -62.23709 20014 ft 130 kts 276°
2026-04-26 19:02 17.21461 -62.24682 20015 ft 142 kts 276°
2026-04-26 19:02 17.21655 -62.25721 20014 ft 149 kts 276°
2026-04-26 19:02 17.21857 -62.26802 20013 ft 154 kts 277°
2026-04-26 19:02 17.21926 -62.27174 20011 ft 155 kts 277°
2026-04-26 19:03 17.22274 -62.29037 20014 ft 159 kts 277°
2026-04-26 19:03 17.22486 -62.30172 20012 ft 160 kts 277°
2026-04-26 19:03 17.22699 -62.31316 20015 ft 161 kts 277°
2026-04-26 19:03 17.22912 -62.32464 20015 ft 161 kts 277°
2026-04-26 19:04 17.23054 -62.33227 20009 ft 161 kts 277°
2026-04-26 19:04 17.23268 -62.34376 20012 ft 161 kts 277°
2026-04-26 19:04 17.23482 -62.35527 20011 ft 161 kts 277°
2026-04-26 19:04 17.23695 -62.36679 20015 ft 161 kts 277°
2026-04-26 19:05 17.24123 -62.38984 20018 ft 162 kts 277°
2026-04-26 19:05 17.24337 -62.40138 20021 ft 162 kts 277°
2026-04-26 19:05 17.24551 -62.41290 20023 ft 161 kts 277°
2026-04-26 19:06 17.24764 -62.42441 20021 ft 161 kts 277°
2026-04-26 19:06 17.24978 -62.43595 20021 ft 161 kts 277°
2026-04-26 19:06 17.25191 -62.44749 20021 ft 161 kts 277°
2026-04-26 19:06 17.25404 -62.45901 20023 ft 161 kts 277°
2026-04-26 19:07 17.25618 -62.47054 20024 ft 162 kts 277°
2026-04-26 19:07 17.25832 -62.48208 20026 ft 162 kts 277°
2026-04-26 19:07 17.26045 -62.49361 20028 ft 161 kts 277°
2026-04-26 19:07 17.26258 -62.50515 20025 ft 161 kts 277°
2026-04-26 19:08 17.26471 -62.51667 20026 ft 161 kts 277°
2026-04-26 19:08 17.26684 -62.52820 20027 ft 161 kts 277°
2026-04-26 19:08 17.26897 -62.53972 20027 ft 162 kts 277°
2026-04-26 19:08 17.27110 -62.55127 20024 ft 161 kts 277°
2026-04-26 19:09 17.27323 -62.56280 20027 ft 161 kts 277°
2026-04-26 19:09 17.27536 -62.57432 20026 ft 161 kts 277°
2026-04-26 19:09 17.27748 -62.58584 20029 ft 161 kts 276°
2026-04-26 19:09 17.27961 -62.59737 20027 ft 161 kts 276°
2026-04-26 19:10 17.28173 -62.60889 20026 ft 161 kts 276°
2026-04-26 19:10 17.28385 -62.62039 20027 ft 161 kts 277°
2026-04-26 19:10 17.28597 -62.63193 19999 ft 161 kts 277°
2026-04-26 19:10 17.28810 -62.64347 20000 ft 161 kts 277°
2026-04-26 19:11 17.29022 -62.65500 20000 ft 161 kts 276°
2026-04-26 19:11 17.29235 -62.66654 19999 ft 161 kts 276°
2026-04-26 19:11 17.29447 -62.67807 19998 ft 162 kts 276°
2026-04-26 19:11 17.29659 -62.68961 19998 ft 162 kts 277°
2026-04-26 19:12 17.29871 -62.70115 19999 ft 162 kts 277°
2026-04-26 19:12 17.30084 -62.71271 20001 ft 162 kts 277°
2026-04-26 19:12 17.30297 -62.72430 20000 ft 162 kts 277°
2026-04-26 19:12 17.30509 -62.73589 20000 ft 162 kts 277°
2026-04-26 19:13 17.30722 -62.74745 20002 ft 162 kts 276°
2026-04-26 19:13 17.30934 -62.75902 20000 ft 162 kts 277°
2026-04-26 19:13 17.31146 -62.77054 20003 ft 160 kts 277°
2026-04-26 19:13 17.31356 -62.78201 19999 ft 161 kts 276°
2026-04-26 19:14 17.31567 -62.79356 20003 ft 162 kts 277°
2026-04-26 19:14 17.31780 -62.80516 20002 ft 162 kts 277°
2026-04-26 19:14 17.31992 -62.81673 20001 ft 162 kts 277°
2026-04-26 19:14 17.32133 -62.82439 20002 ft 162 kts 276°
2026-04-26 19:15 17.32416 -62.83985 20003 ft 162 kts 277°
2026-04-26 19:15 17.32627 -62.85139 20000 ft 161 kts 277°
2026-04-26 19:15 17.32838 -62.86293 20000 ft 161 kts 277°
2026-04-26 19:15 17.33049 -62.87445 20001 ft 161 kts 277°
2026-04-26 19:16 17.33259 -62.88598 20003 ft 161 kts 277°
2026-04-26 19:16 17.33471 -62.89752 20001 ft 161 kts 277°
2026-04-26 19:16 17.33681 -62.90905 20001 ft 161 kts 277°
2026-04-26 19:16 17.33892 -62.92058 20002 ft 161 kts 276°
2026-04-26 19:17 17.34100 -62.93196 20001 ft 161 kts 276°
2026-04-26 19:17 17.34310 -62.94348 20002 ft 161 kts 277°
2026-04-26 19:17 17.34523 -62.95517 20001 ft 161 kts 277°
2026-04-26 19:17 17.34731 -62.96656 20001 ft 161 kts 277°
2026-04-26 19:18 17.34944 -62.97824 20002 ft 161 kts 277°
2026-04-26 19:18 17.35152 -62.98964 20001 ft 161 kts 277°
2026-04-26 19:18 17.35366 -63.00118 20002 ft 162 kts 278°
2026-04-26 19:18 17.35632 -63.01262 20002 ft 162 kts 279°
2026-04-26 19:19 17.35894 -63.02407 20001 ft 162 kts 279°
2026-04-26 19:19 17.36154 -63.03552 20003 ft 162 kts 279°
2026-04-26 19:19 17.36419 -63.04712 20002 ft 162 kts 279°
2026-04-26 19:19 17.36680 -63.05857 20002 ft 162 kts 279°
2026-04-26 19:20 17.36942 -63.07003 20001 ft 162 kts 279°
2026-04-26 19:20 17.37115 -63.07761 20002 ft 162 kts 279°
2026-04-26 19:20 17.37461 -63.09275 20002 ft 162 kts 279°
2026-04-26 19:20 17.37722 -63.10420 20002 ft 162 kts 279°
2026-04-26 19:21 17.37987 -63.11579 20002 ft 162 kts 279°
2026-04-26 19:21 17.38248 -63.12723 20003 ft 162 kts 279°
2026-04-26 19:21 17.38505 -63.13852 20001 ft 162 kts 279°
2026-04-26 19:21 17.38766 -63.14995 20003 ft 162 kts 279°
2026-04-26 19:22 17.39026 -63.16139 20005 ft 162 kts 279°
2026-04-26 19:22 17.39287 -63.17282 20003 ft 161 kts 279°
2026-04-26 19:22 17.39548 -63.18426 20001 ft 161 kts 279°
2026-04-26 19:22 17.39808 -63.19569 20000 ft 161 kts 279°
2026-04-26 19:23 17.40068 -63.20710 20002 ft 161 kts 279°
2026-04-26 19:23 17.40328 -63.21852 20004 ft 161 kts 279°
2026-04-26 19:23 17.40588 -63.22996 20003 ft 161 kts 279°
2026-04-26 19:23 17.40848 -63.24139 20004 ft 161 kts 279°
2026-04-26 19:24 17.41108 -63.25281 20004 ft 161 kts 279°
2026-04-26 19:24 17.41368 -63.26424 20003 ft 161 kts 279°
2026-04-26 19:24 17.41887 -63.28707 20002 ft 161 kts 279°
2026-04-26 19:25 17.42146 -63.29847 20003 ft 161 kts 279°
2026-04-26 19:25 17.42321 -63.30617 20001 ft 161 kts 279°
2026-04-26 19:25 17.42663 -63.32127 19999 ft 161 kts 279°
2026-04-26 19:25 17.42922 -63.33268 20000 ft 161 kts 279°
2026-04-26 19:26 17.43182 -63.34410 19999 ft 161 kts 279°
2026-04-26 19:26 17.43440 -63.35550 19999 ft 161 kts 279°
2026-04-26 19:26 17.43699 -63.36693 19997 ft 161 kts 279°
2026-04-26 19:26 17.43958 -63.37834 19998 ft 161 kts 279°
2026-04-26 19:27 17.44217 -63.38975 19996 ft 161 kts 279°
2026-04-26 19:27 17.44475 -63.40116 19996 ft 161 kts 279°
2026-04-26 19:27 17.44734 -63.41258 19997 ft 161 kts 279°
2026-04-26 19:27 17.44992 -63.42398 19998 ft 161 kts 279°
2026-04-26 19:28 17.45251 -63.43539 19997 ft 161 kts 279°
2026-04-26 19:28 17.45496 -63.44578 19954 ft 118 kts 279°
2026-04-26 19:28 17.45664 -63.45321 19557 ft 101 kts 276°
2026-04-26 19:28 17.45823 -63.46047 19041 ft 99 kts 277°
2026-04-26 19:29 17.45966 -63.46690 18704 ft 84 kts 276°
2026-04-26 19:29 17.46096 -63.47274 18278 ft 81 kts 277°
2026-04-26 19:29 17.46221 -63.47835 17792 ft 79 kts 277°
2026-04-26 19:29 17.46343 -63.48378 17347 ft 72 kts 276°
2026-04-26 19:30 17.46456 -63.48881 16806 ft 73 kts 276°
2026-04-26 19:30 17.46576 -63.49406 16291 ft 72 kts 277°
2026-04-26 19:30 17.46689 -63.49914 15752 ft 73 kts 278°
2026-04-26 19:30 17.46767 -63.50260 15406 ft 73 kts 277°
2026-04-26 19:31 17.46921 -63.50948 14690 ft 74 kts 278°
2026-04-26 19:31 17.47042 -63.51470 14184 ft 72 kts 277°
2026-04-26 19:31 17.47155 -63.51980 13623 ft 73 kts 279°
2026-04-26 19:31 17.47272 -63.52491 13020 ft 71 kts 278°
2026-04-26 19:32 17.47383 -63.52994 12402 ft 72 kts 279°
2026-04-26 19:32 17.47497 -63.53498 11790 ft 70 kts 277°
2026-04-26 19:32 17.47612 -63.54002 11176 ft 71 kts 277°
2026-04-26 19:32 17.47725 -63.54511 10551 ft 74 kts 279°
2026-04-26 19:33 17.47843 -63.55029 9960 ft 73 kts 278°
2026-04-26 19:33 17.47963 -63.55554 9296 ft 74 kts 278°
2026-04-26 19:33 17.48079 -63.56069 8605 ft 74 kts 279°
2026-04-26 19:33 17.48237 -63.56788 8652 ft 93 kts 278°
2026-04-26 19:34 17.48380 -63.57467 8903 ft 98 kts 278°
2026-04-26 19:34 17.48542 -63.58172 9204 ft 103 kts 279°
2026-04-26 19:34 17.48721 -63.58942 9523 ft 106 kts 280°
2026-04-26 19:34 17.48904 -63.59748 9734 ft 122 kts 281°
2026-04-26 19:35 17.49104 -63.60626 9983 ft 126 kts 281°
2026-04-26 19:35 17.49313 -63.61545 10167 ft 133 kts 281°
2026-04-26 19:35 17.49532 -63.62510 10328 ft 139 kts 281°
2026-04-26 19:35 17.49758 -63.63508 10482 ft 142 kts 281°
2026-04-26 19:36 17.49987 -63.64526 10632 ft 145 kts 281°
2026-04-26 19:36 17.50062 -63.64858 10694 ft 144 kts 281°
2026-04-26 19:36 17.50445 -63.66561 11006 ft 142 kts 281°
2026-04-26 19:36 17.50673 -63.67566 11205 ft 141 kts 281°
2026-04-26 19:37 17.50894 -63.68553 11435 ft 138 kts 281°
2026-04-26 19:37 17.51110 -63.69521 11669 ft 136 kts 281°
2026-04-26 19:37 17.51323 -63.70465 11944 ft 131 kts 280°
2026-04-26 19:37 17.51528 -63.71382 12230 ft 127 kts 281°
2026-04-26 19:38 17.51730 -63.72275 12513 ft 125 kts 280°
2026-04-26 19:38 17.51926 -63.73153 12807 ft 122 kts 280°
2026-04-26 19:38 17.52119 -63.74012 13099 ft 120 kts 280°
2026-04-26 19:38 17.52307 -63.74855 13388 ft 118 kts 280°
2026-04-26 19:39 17.52494 -63.75686 13683 ft 116 kts 279°
2026-04-26 19:39 17.52677 -63.76504 13960 ft 114 kts 279°
2026-04-26 19:39 17.52858 -63.77307 14224 ft 112 kts 279°
2026-04-26 19:39 17.53034 -63.78096 14491 ft 110 kts 279°
2026-04-26 19:40 17.53208 -63.78870 14759 ft 108 kts 279°
2026-04-26 19:40 17.53379 -63.79632 15027 ft 106 kts 279°
2026-04-26 19:40 17.53546 -63.80376 15301 ft 104 kts 279°
2026-04-26 19:40 17.53708 -63.81105 15574 ft 102 kts 278°
2026-04-26 19:41 17.53868 -63.81817 15853 ft 99 kts 278°
2026-04-26 19:41 17.54024 -63.82508 16128 ft 96 kts 277°
2026-04-26 19:41 17.54173 -63.83179 16409 ft 93 kts 277°
2026-04-26 19:41 17.54223 -63.83400 16503 ft 92 kts 277°
2026-04-26 19:42 17.54456 -63.84447 16961 ft 86 kts 276°
2026-04-26 19:42 17.54588 -63.85039 17236 ft 81 kts 275°
2026-04-26 19:42 17.54713 -63.85597 17509 ft 76 kts 275°
2026-04-26 19:42 17.54827 -63.86115 17768 ft 70 kts 275°
2026-04-26 19:43 17.54927 -63.86590 17981 ft 65 kts 275°
2026-04-26 19:43 17.55033 -63.87039 18134 ft 62 kts 302°
2026-04-26 19:43 17.55039 -63.87284 14207 ft 82 kts 185°
2026-04-26 19:43 17.55187 -63.86783 8431 ft 159 kts 328°
2026-04-26 19:44 17.54849 -63.87131 4085 ft 159 kts 90°
2026-04-26 19:44 17.55352 -63.87385 525 ft 155 kts 200°
2026-04-26 19:44 17.55051 -63.87418 6 ft 11 kts 158°
2026-04-26 19:44 17.54991 -63.87367 6 ft 11 kts 128°
2026-04-26 19:45 17.54951 -63.87297 6 ft 11 kts 115°
2026-04-26 19:45 17.54921 -63.87222 6 ft 11 kts 110°
2026-04-26 19:45 17.54904 -63.87171 6 ft 11 kts 108°
2026-04-26 19:45 17.54881 -63.87064 6 ft 11 kts 97°
2026-04-26 19:46 17.54877 -63.87010 8 ft 11 kts 91°
2026-04-26 19:46 17.54879 -63.86929 6 ft 11 kts 84°
2026-04-26 19:46 17.54891 -63.86848 6 ft 11 kts 79°
2026-04-26 19:46 17.54903 -63.86767 6 ft 11 kts 83°
2026-04-26 19:47 17.54912 -63.86686 6 ft 11 kts 84°
2026-04-26 19:47 17.54917 -63.86632 6 ft 11 kts 83°
2026-04-26 19:47 17.54930 -63.86524 6 ft 11 kts 82°
2026-04-26 19:47 17.54942 -63.86443 6 ft 11 kts 81°
2026-04-26 19:48 17.54955 -63.86362 6 ft 11 kts 79°
2026-04-26 19:48 17.54970 -63.86281 6 ft 11 kts 80°
2026-04-26 19:48 17.54981 -63.86200 6 ft 11 kts 82°
2026-04-26 19:48 17.54990 -63.86119 6 ft 11 kts 83°
2026-04-26 19:49 17.54998 -63.86037 5 ft 11 kts 84°
2026-04-26 19:49 17.55004 -63.85956 6 ft 11 kts 87°
2026-04-26 19:49 17.55010 -63.85874 6 ft 11 kts 82°
2026-04-26 19:49 17.55022 -63.85793 6 ft 11 kts 80°
2026-04-26 19:50 17.55036 -63.85712 8 ft 11 kts 81°
2026-04-26 19:50 17.55045 -63.85630 6 ft 11 kts 85°
2026-04-26 19:50 17.55047 -63.85549 6 ft 11 kts 92°
2026-04-26 19:50 17.55042 -63.85467 6 ft 11 kts 95°
2026-04-26 19:51 17.55034 -63.85386 6 ft 11 kts 97°
2026-04-26 19:51 17.55019 -63.85306 6 ft 11 kts 103°
2026-04-26 19:51 17.54998 -63.85229 6 ft 11 kts 108°
2026-04-26 19:51 17.54973 -63.85152 6 ft 11 kts 110°
2026-04-26 19:52 17.54947 -63.85076 4 ft 11 kts 109°
2026-04-26 19:52 17.54922 -63.84999 6 ft 11 kts 108°
2026-04-26 19:52 17.54898 -63.84922 6 ft 11 kts 107°
2026-04-26 19:52 17.54875 -63.84844 6 ft 11 kts 106°